Regional Weather Roundup
Issued by NWS

Home | Current Version | Previous Version | Graphics & Text | Print | Product List | Glossary On
Versions: 1 2 3 4 5 6 7 8 9 10 11 12 13 14 15 16 17 18 19 20 21 22 23 24 25 26 27 28 29 30 31 32 33 34 35 36 37 38 39 40 41 42 43 44 45 46 47 48 49 50
000
ASUS43 KIND 070009
RWRIN

WEATHER ROUNDUP FOR INDIANA
NATIONAL WEATHER SERVICE INDIANAPOLIS IN
700 PM EST FRI MAR 06 2015

NOTE: "FAIR" INDICATES FEW OR NO CLOUDS BELOW 12,000 FEET WITH NO
SIGNIFICANT WEATHER AND/OR OBSTRUCTIONS TO VISIBILITY.

* - STATION DOES NOT REPORT WEATHER SUCH AS PRECIPITATION OR FOG.

+ - STATION NOT QUALITY CONTROLLED BY THE NATIONAL WEATHER SERVICE.
    USE DATA WITH CAUTION...ESPECIALLY DEWPOINT AND RELATIVE
    HUMIDITY OBSERVATIONS.

INZ001>003-010>013-019-020-070100-
NORTHWEST INDIANA

CITY           SKY/WX    TMP DP  RH WIND       PRES   REMARKS
GARY /AIRPORT/ CLEAR     25  10  54 S20G32    30.23F WCI  11
KNOX *+          N/A     23   0  36 SW14      30.23F WCI  11
LA PORTE +     PTCLDY    24  13  63 SW13      30.23F WCI  12
6HR MIN TEMP:  19; 6HR MAX TEMP:  26;

MICHIGAN CITY+ CLEAR     23   9  54 S10G23    30.23S WCI  12
MONTICELLO +   CLEAR     25  13  60 SW10      30.27S WCI  15
6HR MIN TEMP:  20; 6HR MAX TEMP:  28;

RENSSELAER +   CLEAR     23  16  74 S9        30.26F WCI  13
VALPARAISO     CLEAR     22  11  62 SW14      30.23F WCI   9
6HR MIN TEMP:  17; 6HR MAX TEMP:  24;


$$

LMZ046-743>745-070100-
SOUTHERN LAKE MICHIGAN

STATION/POSITION TIME  TEMP WIND        PRES
                       AIR  DIR/SP/G
                 (UTC) (F)  (DEG/KT/KT) (MB)
MICHIGAN CITY    0000   24  180/ 17/ 20   N/A

$$

INZ004-005-014>016-021>024-070100-
NORTH CENTRAL INDIANA

CITY           SKY/WX    TMP DP  RH WIND       PRES   REMARKS
ELKHART        CLEAR     23   9  54 S8        30.23F WCI  14
GOSHEN         CLEAR     22  10  60 SW12      30.23F WCI  10
6HR MIN TEMP:  17; 6HR MAX TEMP:  24;

LOGANSPORT +   CLEAR     19  10  68 S8        30.28S WCI   9
PERU/GRISSOM   CLEAR     24  10  54 SW16      30.26S WCI  11
6HR MIN TEMP:  20; 6HR MAX TEMP:  27;

ROCHESTER +    CLEAR     27  12  54 S10       30.26S WCI  17
SOUTH BEND     CLEAR     24  10  55 SW8       30.22F WCI  15
6HR MIN TEMP:  19; 6HR MAX TEMP:  26;

WARSAW +       CLEAR     25  10  54 SW7       30.24S WCI  17

$$

INZ006>009-017-018-025>027-070100-
NORTHEAST INDIANA

CITY           SKY/WX    TMP DP  RH WIND       PRES   REMARKS
ANGOLA *+      CLEAR     19  10  68 S9        30.21F WCI   9
AUBURN +       CLEAR     23  10  58 S7        30.25F WCI  15
FORT WAYNE     PTCLDY    20  11  68 S12       30.28S WCI   8
6HR MIN TEMP:  19; 6HR MAX TEMP:  24;

HUNTINGTON +   CLEAR     22   8  54 S8        30.27S WCI  13
6HR MIN TEMP:  19; 6HR MAX TEMP:  25;


$$

INZ028-029-035-036-043>045-051>053-070100-
WEST CENTRAL INDIANA

CITY           SKY/WX    TMP DP  RH WIND       PRES   REMARKS
CRAWFORDSVL +  CLEAR     22   6  49 S15       30.30S WCI   9
6HR MIN TEMP:  21; 6HR MAX TEMP:  26;

GREENCASTLE +  CLEAR     27   5  39 SW9       30.32R WCI  17
LAFAYETTE      CLEAR     25  12  58 SW6       30.29F WCI  18
6HR MIN TEMP:  20; 6HR MAX TEMP:  28;

TERRE HAUTE    CLEAR     25  10  53 S13       30.34F WCI  14
6HR MIN TEMP:  22; 6HR MAX TEMP:  27;


$$

INZ030>032-037>040-046>048-054>057-064-065-070100-
CENTRAL INDIANA

CITY           SKY/WX    TMP DP  RH WIND       PRES   REMARKS
CP ATTERBURY + CLEAR     30   9  40 S8        30.35S WCI  23
COLUMBUS       CLEAR     27  10  50 S12       30.36F WCI  16
FRANKFORT +    CLEAR     23  12  64 S10       30.30S WCI  12
6HR MIN TEMP:  22; 6HR MAX TEMP:  28;

GREENWOOD *+   CLEAR     28   7  40 S10       30.32F WCI  19
INDIANAPOLIS   CLEAR     28   8  43 S13       30.29F WCI  17
6HR MIN TEMP:  23; 6HR MAX TEMP:  30;

-EAGLE CREEK   CLEAR     28   7  41 S9        30.29F WCI  19
6HR MIN TEMP:  23; 6HR MAX TEMP:  31;

KOKOMO *+        N/A    N/A N/A N/A MISG        N/A
MARION +       CLEAR     23  12  63 S13       30.29R WCI  11
MT COMFORT *+  CLEAR     25   7  46 S9        30.31S WCI  15
SHELBYVILLE    CLEAR     28  13  53 S14       30.32F WCI  17
6HR MIN TEMP:  23; 6HR MAX TEMP:  29;

ZIONSVILLE +   CLEAR     28   7  41 SW12      30.29R WCI  18
6HR MIN TEMP:  24; 6HR MAX TEMP:  30;


$$

INZ033-034-041-042-049-050-058-059-070100-
EAST CENTRAL INDIANA

CITY           SKY/WX    TMP DP  RH WIND       PRES   REMARKS
MUNCIE         CLEAR     24  11  57 S15       30.28F WCI  11
6HR MIN TEMP:  21; 6HR MAX TEMP:  26;


$$

INZ060-061-067>069-081>083-085>088-070100-
SOUTHWEST INDIANA

CITY           SKY/WX    TMP DP  RH WIND       PRES   REMARKS
EVANSVILLE     CLEAR     30   8  39 S8        30.41F WCI  22
6HR MIN TEMP:  23; 6HR MAX TEMP:  31;

HUNTINGBURG *+ CLEAR     25  10  54 S7        30.41F WCI  17
6HR MIN TEMP:  23; 6HR MAX TEMP:  27;

WASHINGTON +   CLEAR     26   6  43 S10       30.37F WCI  16
6HR MIN TEMP:  24; 6HR MAX TEMP:  28;


$$

INZ062-063-066-070>080-084-089>092-070100-
SOUTH CENTRAL AND SOUTHEAST INDIANA

CITY           SKY/WX    TMP DP  RH WIND       PRES   REMARKS
BEDFORD +      CLEAR     28   1  31 S10       30.36F WCI  19
BLOOMINGTON    CLEAR     28   5  37 S13       30.33F WCI  17
6HR MIN TEMP:  25; 6HR MAX TEMP:  30; 6HR PCP: TRACE;

NORTH VERNON + CLEAR     28  10  47 S7        30.36F WCI  21
SEYMOUR +      CLEAR     27  12  54 S8        30.38F WCI  18

$$




USA.gov is the U.S. government's official web portal to all federal, state and local government web resources and services.